Volver al catálogo

NOAA 16 DEB

ActivoPO
NORAD 42344·DEBRIS·🇺🇸 United States

Lanzado Sep 21, 2000 desde Vandenberg Space Force Base

Loading…

Próximos Pases (próximas 24 horas)

TLE

ActualizadoSource: Space-Track

Época: Sep 13, 2026, 08:02 UTC

1 42344U 00055QL  26256.33482096  .00007015  00000-0  14167-2 0  9997
2 42344  98.7401  38.1674 0027904  79.0217 281.4119 14.61487906542424

Sigue NOAA 16 DEB en tiempo real con AllMySat

Download on the App Store